sat.trackr.live / text

‹ back to catalog

STARLINK-30240

NORAD 57404 · 2023-102A

PAYLOAD ACTIVE UNKNOWN

§ Identity

Operator
Country
US
Launch date
2023-07-20
Launch site
AFWTR
Launch vehicle
Mass (kg)
RCS (m²)

Purposes: comms

External: N2YO · Heavens-Above · Gunter

§ Orbital elements

Epoch: 2026-09-20T15:11:03.863040Z

Period
94.27 min
Inclination
43.0041°
Eccentricity
0.0001492
Mean motion
15.27570679 rev/d
Perigee alt
482.1 km
Apogee alt
484.1 km
Semi-major
6,861.2 km
B*
-3.0451e-6
RAAN
227.6743°
Arg perigee
259.2567°
Mean anomaly
100.8117°
Rev number
17,605

§ Raw data

STARLINK-302401 57404U 23102A   26263.63268360 -.00000346  00000+0 -30451-5 0  99932 57404  43.0041 227.6743 0001492 259.2567 100.8117 15.27570679176053

JSON: /api/v1/satellites/57404 · /tle

For live sub-satellite position, see the globe view (requires WebGL).

§ Visibility from observer

Set your observer location to see the next 7 days of passes ≥ 10°. The values pass through the URL so the page stays shareable.

No JS? Fill the form by hand. The geolocation button needs JavaScript.